Year,Month,Day,Hour,Minute,Value (Times are PST for temperature in C)
2013,04,16,00,00,5.20
2013,04,16,00,01,5.20
2013,04,16,00,02,5.20
2013,04,16,00,03,5.20
2013,04,16,00,04,5.20
2013,04,16,00,05,5.20
2013,04,16,00,06,5.20
2013,04,16,00,07,5.20
2013,04,16,00,08,5.20
2013,04,16,00,09,5.20
2013,04,16,00,10,5.20
2013,04,16,00,11,5.20
2013,04,16,00,12,5.20
2013,04,16,00,13,5.20
2013,04,16,00,14,5.20
2013,04,16,00,15,5.20
2013,04,16,00,16,5.20
2013,04,16,00,17,5.10
2013,04,16,00,18,5.10
2013,04,16,00,19,5.10
2013,04,16,00,20,5.10
2013,04,16,00,21,5.00
2013,04,16,00,22,5.00
2013,04,16,00,23,4.90
2013,04,16,00,24,4.90
2013,04,16,00,25,4.90
2013,04,16,00,26,4.90
2013,04,16,00,27,4.80
2013,04,16,00,28,4.80
2013,04,16,00,29,4.80
2013,04,16,00,30,4.80
2013,04,16,00,31,4.80
2013,04,16,00,32,4.80
2013,04,16,00,33,4.80
2013,04,16,00,34,4.80
2013,04,16,00,35,4.80
2013,04,16,00,36,4.80
2013,04,16,00,37,4.80
2013,04,16,00,38,4.80
2013,04,16,00,39,4.80
2013,04,16,00,40,4.90
2013,04,16,00,41,4.90
2013,04,16,00,42,4.90
2013,04,16,00,43,4.90
2013,04,16,00,44,4.90
2013,04,16,00,45,4.90
2013,04,16,00,46,4.90
2013,04,16,00,47,4.90
2013,04,16,00,48,4.90
2013,04,16,00,49,4.90
2013,04,16,00,50,5.00
2013,04,16,00,51,5.00
2013,04,16,00,52,5.00
2013,04,16,00,53,5.00
2013,04,16,00,54,5.00
2013,04,16,00,55,5.00
2013,04,16,00,56,5.00
2013,04,16,00,57,5.00
2013,04,16,00,58,5.00
2013,04,16,00,59,5.00
2013,04,16,01,00,5.00
2013,04,16,01,01,5.00
2013,04,16,01,02,5.00
2013,04,16,01,03,5.00
2013,04,16,01,04,5.00
2013,04,16,01,05,5.00
2013,04,16,01,06,5.00
2013,04,16,01,07,4.90
2013,04,16,01,08,4.90
2013,04,16,01,09,4.90
2013,04,16,01,10,4.90
2013,04,16,01,11,4.90
2013,04,16,01,12,4.90
2013,04,16,01,13,4.80
2013,04,16,01,14,4.80
2013,04,16,01,15,4.80
2013,04,16,01,16,4.80
2013,04,16,01,17,4.70
2013,04,16,01,18,4.70
2013,04,16,01,19,4.70
2013,04,16,01,20,4.70
2013,04,16,01,21,4.60
2013,04,16,01,22,4.60
2013,04,16,01,23,4.60
2013,04,16,01,24,4.60
2013,04,16,01,25,4.50
2013,04,16,01,26,4.50
2013,04,16,01,27,4.50
2013,04,16,01,28,4.40
2013,04,16,01,29,4.40
2013,04,16,01,30,4.40
2013,04,16,01,31,4.40
2013,04,16,01,32,4.40
2013,04,16,01,33,4.30
2013,04,16,01,34,4.30
2013,04,16,01,35,4.30
2013,04,16,01,36,4.30
2013,04,16,01,37,4.30
2013,04,16,01,38,4.30
2013,04,16,01,39,4.30
2013,04,16,01,40,4.40
2013,04,16,01,41,4.40
2013,04,16,01,42,4.40
2013,04,16,01,43,4.40
2013,04,16,01,44,4.40
2013,04,16,01,45,4.40
2013,04,16,01,46,4.40
2013,04,16,01,47,4.40
2013,04,16,01,48,4.40
2013,04,16,01,49,4.40
2013,04,16,01,50,4.40
2013,04,16,01,51,4.40
2013,04,16,01,52,4.40
2013,04,16,01,53,4.40
2013,04,16,01,54,4.40
2013,04,16,01,55,4.40
2013,04,16,01,56,4.40
2013,04,16,01,57,4.40
2013,04,16,01,58,4.30
2013,04,16,01,59,4.30
2013,04,16,02,00,4.30
2013,04,16,02,01,4.20
2013,04,16,02,02,4.20
2013,04,16,02,03,4.20
2013,04,16,02,04,4.10
2013,04,16,02,05,4.10
2013,04,16,02,06,4.10
2013,04,16,02,07,4.10
2013,04,16,02,08,4.00
2013,04,16,02,09,4.00
2013,04,16,02,10,4.00
2013,04,16,02,11,3.90
2013,04,16,02,12,3.90
2013,04,16,02,13,3.90
2013,04,16,02,14,3.90
2013,04,16,02,15,3.80
2013,04,16,02,16,3.80
2013,04,16,02,17,3.80
2013,04,16,02,18,3.80
2013,04,16,02,19,3.80
2013,04,16,02,20,3.70
2013,04,16,02,21,3.70
2013,04,16,02,22,3.70
2013,04,16,02,23,3.70
2013,04,16,02,24,3.70
2013,04,16,02,25,3.70
2013,04,16,02,26,3.70
2013,04,16,02,27,3.70
2013,04,16,02,28,3.70
2013,04,16,02,29,3.70
2013,04,16,02,30,3.70
2013,04,16,02,31,3.70
2013,04,16,02,32,3.70
2013,04,16,02,33,3.70
2013,04,16,02,34,3.70
2013,04,16,02,35,3.70
2013,04,16,02,36,3.70
2013,04,16,02,37,3.70
2013,04,16,02,38,3.70
2013,04,16,02,39,3.70
2013,04,16,02,40,3.60
2013,04,16,02,41,3.70
2013,04,16,02,42,3.70
2013,04,16,02,43,3.60
2013,04,16,02,44,3.60
2013,04,16,02,45,3.60
2013,04,16,02,46,3.60
2013,04,16,02,47,3.60
2013,04,16,02,48,3.60
2013,04,16,02,49,3.60
2013,04,16,02,50,3.60
2013,04,16,02,51,3.50
2013,04,16,02,52,3.50
2013,04,16,02,53,3.50
2013,04,16,02,54,3.50
2013,04,16,02,55,3.50
2013,04,16,02,56,3.40
2013,04,16,02,57,3.40
2013,04,16,02,58,3.40
2013,04,16,02,59,3.40
2013,04,16,03,00,3.40
2013,04,16,03,01,3.40
2013,04,16,03,02,3.30
2013,04,16,03,03,3.30
2013,04,16,03,04,3.30
2013,04,16,03,05,3.30
2013,04,16,03,06,3.30
2013,04,16,03,07,3.30
2013,04,16,03,08,3.30
2013,04,16,03,09,3.30
2013,04,16,03,10,3.20
2013,04,16,03,11,3.20
2013,04,16,03,12,3.20
2013,04,16,03,13,3.20
2013,04,16,03,14,3.20
2013,04,16,03,15,3.20
2013,04,16,03,16,3.20
2013,04,16,03,17,3.10
2013,04,16,03,18,3.10
2013,04,16,03,19,3.10
2013,04,16,03,20,3.10
2013,04,16,03,21,3.10
2013,04,16,03,22,3.10
2013,04,16,03,23,3.10
2013,04,16,03,24,3.10
2013,04,16,03,25,3.00
2013,04,16,03,26,3.00
2013,04,16,03,27,3.00
2013,04,16,03,28,3.00
2013,04,16,03,29,3.00
2013,04,16,03,30,3.00
2013,04,16,03,31,3.00
2013,04,16,03,32,3.00
2013,04,16,03,33,3.00
2013,04,16,03,34,2.90
2013,04,16,03,35,2.90
2013,04,16,03,36,2.90
2013,04,16,03,37,2.90
2013,04,16,03,38,2.90
2013,04,16,03,39,2.90
2013,04,16,03,40,2.90
2013,04,16,03,41,2.80
2013,04,16,03,42,2.80
2013,04,16,03,43,2.80
2013,04,16,03,44,2.80
2013,04,16,03,45,2.80
2013,04,16,03,46,2.80
2013,04,16,03,47,2.80
2013,04,16,03,48,2.70
2013,04,16,03,49,2.70
2013,04,16,03,50,2.70
2013,04,16,03,51,2.70
2013,04,16,03,52,2.70
2013,04,16,03,53,2.70
2013,04,16,03,54,2.70
2013,04,16,03,55,2.70
2013,04,16,03,56,2.70
2013,04,16,03,57,2.60
2013,04,16,03,58,2.60
2013,04,16,03,59,2.60
2013,04,16,04,00,2.60
2013,04,16,04,01,2.70
2013,04,16,04,02,2.70
2013,04,16,04,03,2.70
2013,04,16,04,04,2.80
2013,04,16,04,05,2.80
2013,04,16,04,06,2.80
2013,04,16,04,07,2.80
2013,04,16,04,08,2.80
2013,04,16,04,09,2.90
2013,04,16,04,10,2.90
2013,04,16,04,11,2.90
2013,04,16,04,12,2.90
2013,04,16,04,13,2.90
2013,04,16,04,14,2.90
2013,04,16,04,15,2.90
2013,04,16,04,16,2.90
2013,04,16,04,17,2.90
2013,04,16,04,18,2.90
2013,04,16,04,19,2.90
2013,04,16,04,20,2.90
2013,04,16,04,21,2.90
2013,04,16,04,22,2.90
2013,04,16,04,23,2.90
2013,04,16,04,24,2.80
2013,04,16,04,25,2.80
2013,04,16,04,26,2.80
2013,04,16,04,27,2.80
2013,04,16,04,28,2.80
2013,04,16,04,29,2.80
2013,04,16,04,30,2.80
2013,04,16,04,31,2.70
2013,04,16,04,32,2.70
2013,04,16,04,33,2.70
2013,04,16,04,34,2.70
2013,04,16,04,35,2.70
2013,04,16,04,36,2.70
2013,04,16,04,37,2.70
2013,04,16,04,38,2.70
2013,04,16,04,39,2.70
2013,04,16,04,40,2.70
2013,04,16,04,41,2.70
2013,04,16,04,42,2.70
2013,04,16,04,43,2.70
2013,04,16,04,44,2.70
2013,04,16,04,45,2.70
2013,04,16,04,46,2.70
2013,04,16,04,47,2.70
2013,04,16,04,48,2.70
2013,04,16,04,49,2.70
2013,04,16,04,50,2.70
2013,04,16,04,51,2.70
2013,04,16,04,52,2.60
2013,04,16,04,53,2.60
2013,04,16,04,54,2.60
2013,04,16,04,55,2.60
2013,04,16,04,56,2.60
2013,04,16,04,57,2.60
2013,04,16,04,58,2.60
2013,04,16,04,59,2.60
2013,04,16,05,00,2.60
2013,04,16,05,01,2.60
2013,04,16,05,02,2.60
2013,04,16,05,03,2.60
2013,04,16,05,04,2.60
2013,04,16,05,05,2.60
2013,04,16,05,06,2.60
2013,04,16,05,07,2.60
2013,04,16,05,08,2.60
2013,04,16,05,09,2.60
2013,04,16,05,10,2.60
2013,04,16,05,11,2.60
2013,04,16,05,12,2.60
2013,04,16,05,13,2.60
2013,04,16,05,14,2.60
2013,04,16,05,15,2.60
2013,04,16,05,16,2.60
2013,04,16,05,17,2.60
2013,04,16,05,18,2.60
2013,04,16,05,19,2.60
2013,04,16,05,20,2.60
2013,04,16,05,21,2.60
2013,04,16,05,22,2.60
2013,04,16,05,23,2.60
2013,04,16,05,24,2.50
2013,04,16,05,25,2.50
2013,04,16,05,26,2.40
2013,04,16,05,27,2.40
2013,04,16,05,28,2.40
2013,04,16,05,29,2.40
2013,04,16,05,30,2.40
2013,04,16,05,31,2.30
2013,04,16,05,32,2.30
2013,04,16,05,33,2.30
2013,04,16,05,34,2.30
2013,04,16,05,35,2.30
2013,04,16,05,36,2.30
2013,04,16,05,37,2.20
2013,04,16,05,38,2.20
2013,04,16,05,39,2.20
2013,04,16,05,40,2.20
2013,04,16,05,41,2.20
2013,04,16,05,42,2.20
2013,04,16,05,43,2.10
2013,04,16,05,44,2.10
2013,04,16,05,45,2.10
2013,04,16,05,46,2.10
2013,04,16,05,47,2.10
2013,04,16,05,48,2.10
2013,04,16,05,49,2.10
2013,04,16,05,50,2.00
2013,04,16,05,51,2.00
2013,04,16,05,52,2.00
2013,04,16,05,53,2.10
2013,04,16,05,54,2.10
2013,04,16,05,55,2.10
2013,04,16,05,56,2.10
2013,04,16,05,57,2.10
2013,04,16,05,58,2.10
2013,04,16,05,59,2.10
2013,04,16,06,00,2.10
2013,04,16,06,01,2.10
2013,04,16,06,02,2.10
2013,04,16,06,03,2.10
2013,04,16,06,04,2.10
2013,04,16,06,05,2.00
2013,04,16,06,06,2.00
2013,04,16,06,07,2.00
2013,04,16,06,08,2.00
2013,04,16,06,09,2.00
2013,04,16,06,10,2.00
2013,04,16,06,11,2.00
2013,04,16,06,12,2.00
2013,04,16,06,13,1.90
2013,04,16,06,14,1.90
2013,04,16,06,15,1.90
2013,04,16,06,16,1.90
2013,04,16,06,17,1.90
2013,04,16,06,18,1.90
2013,04,16,06,19,1.90
2013,04,16,06,20,1.80
2013,04,16,06,21,1.80
2013,04,16,06,22,1.80
2013,04,16,06,23,1.80
2013,04,16,06,24,1.80
2013,04,16,06,25,1.80
2013,04,16,06,26,1.80
2013,04,16,06,27,1.80
2013,04,16,06,28,1.80
2013,04,16,06,29,1.80
2013,04,16,06,30,1.80
2013,04,16,06,31,1.90
2013,04,16,06,32,1.90
2013,04,16,06,33,1.90
2013,04,16,06,34,1.90
2013,04,16,06,35,1.90
2013,04,16,06,36,1.90
2013,04,16,06,37,1.90
2013,04,16,06,38,1.90
2013,04,16,06,39,1.90
2013,04,16,06,40,1.90
2013,04,16,06,41,1.90
2013,04,16,06,42,1.90
2013,04,16,06,43,1.90
2013,04,16,06,44,1.90
2013,04,16,06,45,1.90
2013,04,16,06,46,1.90
2013,04,16,06,47,1.90
2013,04,16,06,48,1.90
2013,04,16,06,49,1.90
2013,04,16,06,50,1.90
2013,04,16,06,51,1.90
2013,04,16,06,52,1.90
2013,04,16,06,53,1.90
2013,04,16,06,54,1.90
2013,04,16,06,55,1.90
2013,04,16,06,56,1.90
2013,04,16,06,57,1.90
2013,04,16,06,58,1.90
2013,04,16,06,59,1.90
2013,04,16,07,00,1.90
2013,04,16,07,01,1.90
2013,04,16,07,02,1.90
2013,04,16,07,03,1.90
2013,04,16,07,04,1.90
2013,04,16,07,05,2.00
2013,04,16,07,06,2.00
2013,04,16,07,07,2.00
2013,04,16,07,08,2.00
2013,04,16,07,09,2.00
2013,04,16,07,10,2.00
2013,04,16,07,11,2.00
2013,04,16,07,12,2.00
2013,04,16,07,13,2.00
2013,04,16,07,14,2.10
2013,04,16,07,15,2.10
2013,04,16,07,16,2.20
2013,04,16,07,17,2.20
2013,04,16,07,18,2.30
2013,04,16,07,19,2.30
2013,04,16,07,20,2.30
2013,04,16,07,21,2.30
2013,04,16,07,22,2.40
2013,04,16,07,23,2.40
2013,04,16,07,24,2.40
2013,04,16,07,25,2.40
2013,04,16,07,26,2.40
2013,04,16,07,27,2.40
2013,04,16,07,28,2.50
2013,04,16,07,29,2.50
2013,04,16,07,30,2.50
2013,04,16,07,31,2.60
2013,04,16,07,32,2.60
2013,04,16,07,33,2.70
2013,04,16,07,34,2.70
2013,04,16,07,35,2.80
2013,04,16,07,36,2.80
2013,04,16,07,37,2.90
2013,04,16,07,38,2.90
2013,04,16,07,39,2.90
2013,04,16,07,40,3.00
2013,04,16,07,41,3.10
2013,04,16,07,42,3.10
2013,04,16,07,43,3.20
2013,04,16,07,44,3.20
2013,04,16,07,45,3.20
2013,04,16,07,46,3.30
2013,04,16,07,47,3.40
2013,04,16,07,48,3.40
2013,04,16,07,49,3.40
2013,04,16,07,50,3.50
2013,04,16,07,51,3.50
2013,04,16,07,52,3.50
2013,04,16,07,53,3.60
2013,04,16,07,54,3.60
2013,04,16,07,55,3.70
2013,04,16,07,56,3.70
2013,04,16,07,57,3.70
2013,04,16,07,58,3.80
2013,04,16,07,59,3.80
2013,04,16,08,00,3.80
2013,04,16,08,01,3.90
2013,04,16,08,02,3.90
2013,04,16,08,03,3.90
2013,04,16,08,04,4.00
2013,04,16,08,05,4.10
2013,04,16,08,06,4.10
2013,04,16,08,07,4.20
2013,04,16,08,08,4.30
2013,04,16,08,09,4.30
2013,04,16,08,10,4.40
2013,04,16,08,11,4.40
2013,04,16,08,12,4.50
2013,04,16,08,13,4.60
2013,04,16,08,14,4.60
2013,04,16,08,15,4.70
2013,04,16,08,16,4.80
2013,04,16,08,17,4.80
2013,04,16,08,18,4.90
2013,04,16,08,19,4.90
2013,04,16,08,20,4.90
2013,04,16,08,21,4.90
2013,04,16,08,22,4.90
2013,04,16,08,23,5.00
2013,04,16,08,24,5.00
2013,04,16,08,25,5.10
2013,04,16,08,26,5.10
2013,04,16,08,27,5.20
2013,04,16,08,28,5.20
2013,04,16,08,29,5.30
2013,04,16,08,30,5.40
2013,04,16,08,31,5.50
2013,04,16,08,32,5.50
2013,04,16,08,33,5.60
2013,04,16,08,34,5.70
2013,04,16,08,35,5.80
2013,04,16,08,36,5.80
2013,04,16,08,37,5.90
2013,04,16,08,38,6.00
2013,04,16,08,39,6.10
2013,04,16,08,40,6.10
2013,04,16,08,41,6.20
2013,04,16,08,42,6.30
2013,04,16,08,43,6.40
2013,04,16,08,44,6.50
2013,04,16,08,45,6.60
2013,04,16,08,46,6.70
2013,04,16,08,47,6.80
2013,04,16,08,48,6.90
2013,04,16,08,49,6.90
2013,04,16,08,50,7.00
2013,04,16,08,51,7.20
2013,04,16,08,52,7.30
2013,04,16,08,53,7.40
2013,04,16,08,54,7.50
2013,04,16,08,55,7.60
2013,04,16,08,56,7.80
2013,04,16,08,57,7.90
2013,04,16,08,58,8.00
2013,04,16,08,59,8.10
2013,04,16,09,00,8.20
2013,04,16,09,01,8.30
2013,04,16,09,02,8.50
2013,04,16,09,03,8.60
2013,04,16,09,04,8.70
2013,04,16,09,05,8.80
2013,04,16,09,06,8.90
2013,04,16,09,07,9.10
2013,04,16,09,08,9.20
2013,04,16,09,09,9.20
2013,04,16,09,10,9.40
2013,04,16,09,11,9.40
2013,04,16,09,12,9.50
2013,04,16,09,13,9.60
2013,04,16,09,14,9.70
2013,04,16,09,15,9.70
2013,04,16,09,16,9.80
2013,04,16,09,17,9.80
2013,04,16,09,18,9.80
2013,04,16,09,19,9.90
2013,04,16,09,20,9.90
2013,04,16,09,21,10.00
2013,04,16,09,22,10.00
2013,04,16,09,23,10.10
2013,04,16,09,24,10.10
2013,04,16,09,25,10.20
2013,04,16,09,26,10.20
2013,04,16,09,27,10.30
2013,04,16,09,28,10.40
2013,04,16,09,29,10.40
2013,04,16,09,30,10.50
2013,04,16,09,31,10.50
2013,04,16,09,32,10.60
2013,04,16,09,33,10.70
2013,04,16,09,34,10.70
2013,04,16,09,35,10.80
2013,04,16,09,36,10.80
2013,04,16,09,37,10.80
2013,04,16,09,38,10.90
2013,04,16,09,39,11.00
2013,04,16,09,40,11.00
2013,04,16,09,41,11.10
2013,04,16,09,42,11.20
2013,04,16,09,43,11.30
2013,04,16,09,44,11.40
2013,04,16,09,45,11.40
2013,04,16,09,46,11.50
2013,04,16,09,47,11.60
2013,04,16,09,48,11.70
2013,04,16,09,49,11.80
2013,04,16,09,50,11.80
2013,04,16,09,51,11.90
2013,04,16,09,52,12.00
2013,04,16,09,53,12.10
2013,04,16,09,54,12.10
2013,04,16,09,55,12.10
2013,04,16,09,56,12.10
2013,04,16,09,57,12.10
2013,04,16,09,58,12.10
2013,04,16,09,59,12.20
2013,04,16,10,00,12.20
2013,04,16,10,01,12.30
2013,04,16,10,02,12.30
2013,04,16,10,03,12.40
2013,04,16,10,04,12.40
2013,04,16,10,05,12.40
2013,04,16,10,06,12.40
2013,04,16,10,07,12.40
2013,04,16,10,08,12.50
2013,04,16,10,09,12.50
2013,04,16,10,10,12.60
2013,04,16,10,11,12.60
2013,04,16,10,12,12.60
2013,04,16,10,13,12.70
2013,04,16,10,14,12.70
2013,04,16,10,15,12.70
2013,04,16,10,16,12.70
2013,04,16,10,17,12.70
2013,04,16,10,18,12.80
2013,04,16,10,19,12.80
2013,04,16,10,20,12.80
2013,04,16,10,21,12.80
2013,04,16,10,22,12.90
2013,04,16,10,23,12.90
2013,04,16,10,24,12.90
2013,04,16,10,25,13.00
2013,04,16,10,26,13.00
2013,04,16,10,27,13.10
2013,04,16,10,28,13.10
2013,04,16,10,29,13.10
2013,04,16,10,30,13.20
2013,04,16,10,31,13.20
2013,04,16,10,32,13.20
2013,04,16,10,33,13.20
2013,04,16,10,34,13.10
2013,04,16,10,35,13.10
2013,04,16,10,36,13.00
2013,04,16,10,37,13.00
2013,04,16,10,38,13.00
2013,04,16,10,39,13.00
2013,04,16,10,40,13.00
2013,04,16,10,41,13.00
2013,04,16,10,42,13.00
2013,04,16,10,43,13.00
2013,04,16,10,44,13.00
2013,04,16,10,45,13.00
2013,04,16,10,46,12.90
2013,04,16,10,47,12.90
2013,04,16,10,48,12.90
2013,04,16,10,49,12.90
2013,04,16,10,50,12.90
2013,04,16,10,51,12.90
2013,04,16,10,52,12.90
2013,04,16,10,53,12.90
2013,04,16,10,54,13.00
2013,04,16,10,55,13.10
2013,04,16,10,56,13.10
2013,04,16,10,57,13.10
2013,04,16,10,58,13.20
2013,04,16,10,59,13.20
2013,04,16,11,00,13.20
2013,04,16,11,01,13.30
2013,04,16,11,02,13.30
2013,04,16,11,03,13.30
2013,04,16,11,04,13.30
2013,04,16,11,05,13.30
2013,04,16,11,06,13.20
2013,04,16,11,07,13.30
2013,04,16,11,08,13.30
2013,04,16,11,09,13.40
2013,04,16,11,10,13.40
2013,04,16,11,11,13.40
2013,04,16,11,12,13.40
2013,04,16,11,13,13.40
2013,04,16,11,14,13.40
2013,04,16,11,15,13.40
2013,04,16,11,16,13.40
2013,04,16,11,17,13.40
2013,04,16,11,18,13.40
2013,04,16,11,19,13.40
2013,04,16,11,20,13.40
2013,04,16,11,21,13.40
2013,04,16,11,22,13.40
2013,04,16,11,23,13.30
2013,04,16,11,24,13.30
2013,04,16,11,25,13.30
2013,04,16,11,26,13.40
2013,04,16,11,27,13.40
2013,04,16,11,28,13.40
2013,04,16,11,29,13.30
2013,04,16,11,30,13.30
2013,04,16,11,31,13.30
2013,04,16,11,32,13.30
2013,04,16,11,33,13.40
2013,04,16,11,34,13.40
2013,04,16,11,35,13.50
2013,04,16,11,36,13.60
2013,04,16,11,37,13.60
2013,04,16,11,38,13.60
2013,04,16,11,39,13.70
2013,04,16,11,40,13.80
2013,04,16,11,41,13.80
2013,04,16,11,42,13.80
2013,04,16,11,43,13.80
2013,04,16,11,44,13.90
2013,04,16,11,45,14.00
2013,04,16,11,46,14.10
2013,04,16,11,47,14.20
2013,04,16,11,48,14.20
2013,04,16,11,49,14.20
2013,04,16,11,50,14.10
2013,04,16,11,51,14.10
2013,04,16,11,52,14.10
2013,04,16,11,53,14.10
2013,04,16,11,54,14.20
2013,04,16,11,55,14.20
2013,04,16,11,56,14.30
2013,04,16,11,57,14.40
2013,04,16,11,58,14.40
2013,04,16,11,59,14.50
2013,04,16,12,00,14.50
2013,04,16,12,01,14.60
2013,04,16,12,02,14.60
2013,04,16,12,03,14.60
2013,04,16,12,04,14.70
2013,04,16,12,05,14.80
2013,04,16,12,06,14.80
2013,04,16,12,07,14.90
2013,04,16,12,08,14.90
2013,04,16,12,09,14.90
2013,04,16,12,10,15.00
2013,04,16,12,11,15.00
2013,04,16,12,12,14.90
2013,04,16,12,13,15.00
2013,04,16,12,14,15.00
2013,04,16,12,15,15.00
2013,04,16,12,16,15.10
2013,04,16,12,17,15.10
2013,04,16,12,18,15.20
2013,04,16,12,19,15.20
2013,04,16,12,20,15.20
2013,04,16,12,21,15.10
2013,04,16,12,22,15.10
2013,04,16,12,23,15.20
2013,04,16,12,24,15.20
2013,04,16,12,25,15.20
2013,04,16,12,26,15.20
2013,04,16,12,27,15.20
2013,04,16,12,28,15.20
2013,04,16,12,29,15.20
2013,04,16,12,30,15.20
2013,04,16,12,31,15.30
2013,04,16,12,32,15.30
2013,04,16,12,33,15.30
2013,04,16,12,34,15.30
2013,04,16,12,35,15.40
2013,04,16,12,36,15.40
2013,04,16,12,37,15.50
2013,04,16,12,38,15.50
2013,04,16,12,39,15.50
2013,04,16,12,40,15.50
2013,04,16,12,41,15.50
2013,04,16,12,42,15.50
2013,04,16,12,43,15.40
2013,04,16,12,44,15.40
2013,04,16,12,45,15.40
2013,04,16,12,46,15.40
2013,04,16,12,47,15.40
2013,04,16,12,48,15.40
2013,04,16,12,49,15.40
2013,04,16,12,50,15.40
2013,04,16,12,51,15.40
2013,04,16,12,52,15.50
2013,04,16,12,53,15.50
2013,04,16,12,54,15.60
2013,04,16,12,55,15.60
2013,04,16,12,56,15.60
2013,04,16,12,57,15.60
2013,04,16,12,58,15.60
2013,04,16,12,59,15.60
2013,04,16,13,00,15.60
2013,04,16,13,01,15.60
2013,04,16,13,02,15.60
2013,04,16,13,03,15.60
2013,04,16,13,04,15.60
2013,04,16,13,05,15.60
2013,04,16,13,06,15.60
2013,04,16,13,07,15.60
2013,04,16,13,08,15.60
2013,04,16,13,09,15.60
2013,04,16,13,10,15.60
2013,04,16,13,11,15.60
2013,04,16,13,12,15.50
2013,04,16,13,13,15.50
2013,04,16,13,14,15.40
2013,04,16,13,15,15.30
2013,04,16,13,16,15.30
2013,04,16,13,17,15.20
2013,04,16,13,18,15.20
2013,04,16,13,19,15.20
2013,04,16,13,20,15.10
2013,04,16,13,21,15.10
2013,04,16,13,22,15.00
2013,04,16,13,23,15.00
2013,04,16,13,24,15.10
2013,04,16,13,25,15.10
2013,04,16,13,26,15.20
2013,04,16,13,27,15.20
2013,04,16,13,28,15.20
2013,04,16,13,29,15.20
2013,04,16,13,30,15.20
2013,04,16,13,31,15.20
2013,04,16,13,32,15.20
2013,04,16,13,33,15.30
2013,04,16,13,34,15.40
2013,04,16,13,35,15.40
2013,04,16,13,36,15.40
2013,04,16,13,37,15.50
2013,04,16,13,38,15.50
2013,04,16,13,39,15.60
2013,04,16,13,40,15.60
2013,04,16,13,41,15.60
2013,04,16,13,42,15.60
2013,04,16,13,43,15.60
2013,04,16,13,44,15.70
2013,04,16,13,45,15.60
2013,04,16,13,46,15.50
2013,04,16,13,47,15.50
2013,04,16,13,48,15.40
2013,04,16,13,49,15.40
2013,04,16,13,50,15.40
2013,04,16,13,51,15.40
2013,04,16,13,52,15.40
2013,04,16,13,53,15.40
2013,04,16,13,54,15.40
2013,04,16,13,55,15.40
2013,04,16,13,56,15.30
2013,04,16,13,57,15.30
2013,04,16,13,58,15.30
2013,04,16,13,59,15.30
2013,04,16,14,00,15.20
2013,04,16,14,01,15.20
2013,04,16,14,02,15.20
2013,04,16,14,03,15.20
2013,04,16,14,04,15.20
2013,04,16,14,05,15.30
2013,04,16,14,06,15.30
2013,04,16,14,07,15.40
2013,04,16,14,08,15.40
2013,04,16,14,09,15.40
2013,04,16,14,10,15.40
2013,04,16,14,11,15.40
2013,04,16,14,12,15.30
2013,04,16,14,13,15.20
2013,04,16,14,14,15.20
2013,04,16,14,15,15.20
2013,04,16,14,16,15.20
2013,04,16,14,17,15.20
2013,04,16,14,18,15.30
2013,04,16,14,19,15.40
2013,04,16,14,20,15.40
2013,04,16,14,21,15.50
2013,04,16,14,22,15.60
2013,04,16,14,23,15.60
2013,04,16,14,24,15.60
2013,04,16,14,25,15.70
2013,04,16,14,26,15.70
2013,04,16,14,27,15.70
2013,04,16,14,28,15.70
2013,04,16,14,29,15.80
2013,04,16,14,30,15.80
2013,04,16,14,31,15.90
2013,04,16,14,32,15.90
2013,04,16,14,33,15.90
2013,04,16,14,34,15.90
2013,04,16,14,35,15.90
2013,04,16,14,36,15.90
2013,04,16,14,37,16.00
2013,04,16,14,38,15.90
2013,04,16,14,39,15.90
2013,04,16,14,40,15.90
2013,04,16,14,41,15.90
2013,04,16,14,42,15.80
2013,04,16,14,43,15.80
2013,04,16,14,44,15.80
2013,04,16,14,45,15.80
2013,04,16,14,46,15.70
2013,04,16,14,47,15.70
2013,04,16,14,48,15.70
2013,04,16,14,49,15.70
2013,04,16,14,50,15.80
2013,04,16,14,51,15.90
2013,04,16,14,52,15.90
2013,04,16,14,53,16.00
2013,04,16,14,54,16.00
2013,04,16,14,55,16.10
2013,04,16,14,56,16.10
2013,04,16,14,57,16.10
2013,04,16,14,58,16.00
2013,04,16,14,59,16.00
2013,04,16,15,00,16.00
2013,04,16,15,01,15.90
2013,04,16,15,02,15.90
2013,04,16,15,03,15.90
2013,04,16,15,04,16.00
2013,04,16,15,05,16.00
2013,04,16,15,06,16.00
2013,04,16,15,07,16.10
2013,04,16,15,08,16.10
2013,04,16,15,09,16.10
2013,04,16,15,10,16.20
2013,04,16,15,11,16.20
2013,04,16,15,12,16.30
2013,04,16,15,13,16.30
2013,04,16,15,14,16.30
2013,04,16,15,15,16.30
2013,04,16,15,16,16.30
2013,04,16,15,17,16.30
2013,04,16,15,18,16.30
2013,04,16,15,19,16.30
2013,04,16,15,20,16.30
2013,04,16,15,21,16.40
2013,04,16,15,22,16.40
2013,04,16,15,23,16.40
2013,04,16,15,24,16.40
2013,04,16,15,25,16.40
2013,04,16,15,26,16.40
2013,04,16,15,27,16.40
2013,04,16,15,28,16.40
2013,04,16,15,29,16.40
2013,04,16,15,30,16.40
2013,04,16,15,31,16.30
2013,04,16,15,32,16.30
2013,04,16,15,33,16.30
2013,04,16,15,34,16.30
2013,04,16,15,35,16.30
2013,04,16,15,36,16.30
2013,04,16,15,37,16.40
2013,04,16,15,38,16.40
2013,04,16,15,39,16.40
2013,04,16,15,40,16.40
2013,04,16,15,41,16.40
2013,04,16,15,42,16.40
2013,04,16,15,43,16.40
2013,04,16,15,44,16.40
2013,04,16,15,45,16.40
2013,04,16,15,46,16.40
2013,04,16,15,47,16.40
2013,04,16,15,48,16.50
2013,04,16,15,49,16.60
2013,04,16,15,50,16.60
2013,04,16,15,51,16.60
2013,04,16,15,52,16.70
2013,04,16,15,53,16.70
2013,04,16,15,54,16.70
2013,04,16,15,55,16.70
2013,04,16,15,56,16.70
2013,04,16,15,57,16.80
2013,04,16,15,58,16.80
2013,04,16,15,59,16.80
2013,04,16,16,00,16.80
2013,04,16,16,01,16.80
2013,04,16,16,02,16.80
2013,04,16,16,03,16.90
2013,04,16,16,04,16.90
2013,04,16,16,05,17.00
2013,04,16,16,06,16.90
2013,04,16,16,07,16.90
2013,04,16,16,08,16.90
2013,04,16,16,09,16.90
2013,04,16,16,10,16.90
2013,04,16,16,11,16.90
2013,04,16,16,12,16.90
2013,04,16,16,13,16.80
2013,04,16,16,14,16.80
2013,04,16,16,15,16.80
2013,04,16,16,16,16.80
2013,04,16,16,17,16.80
2013,04,16,16,18,16.80
2013,04,16,16,19,16.80
2013,04,16,16,20,16.80
2013,04,16,16,21,16.80
2013,04,16,16,22,16.80
2013,04,16,16,23,16.80
2013,04,16,16,24,16.80
2013,04,16,16,25,16.80
2013,04,16,16,26,16.70
2013,04,16,16,27,16.70
2013,04,16,16,28,16.70
2013,04,16,16,29,16.70
2013,04,16,16,30,16.60
2013,04,16,16,31,16.60
2013,04,16,16,32,16.60
2013,04,16,16,33,16.60
2013,04,16,16,34,16.60
2013,04,16,16,35,16.60
2013,04,16,16,36,16.60
2013,04,16,16,37,16.60
2013,04,16,16,38,16.60
2013,04,16,16,39,16.60
2013,04,16,16,40,16.60
2013,04,16,16,41,16.70
2013,04,16,16,42,16.70
2013,04,16,16,43,16.70
2013,04,16,16,44,16.70
2013,04,16,16,45,16.70
2013,04,16,16,46,16.60
2013,04,16,16,47,16.60
2013,04,16,16,48,16.60
2013,04,16,16,49,16.60
2013,04,16,16,50,16.60
2013,04,16,16,51,16.70
2013,04,16,16,52,16.70
2013,04,16,16,53,16.70
2013,04,16,16,54,16.70
2013,04,16,16,55,16.70
2013,04,16,16,56,16.70
2013,04,16,16,57,16.70
2013,04,16,16,58,16.70
2013,04,16,16,59,16.70
2013,04,16,17,00,16.70
2013,04,16,17,01,16.70
2013,04,16,17,02,16.70
2013,04,16,17,03,16.70
2013,04,16,17,04,16.70
2013,04,16,17,05,16.80
2013,04,16,17,06,16.80
2013,04,16,17,07,16.80
2013,04,16,17,08,16.80
2013,04,16,17,09,16.80
2013,04,16,17,10,16.80
2013,04,16,17,11,16.80
2013,04,16,17,12,16.80
2013,04,16,17,13,16.80
2013,04,16,17,14,16.80
2013,04,16,17,15,16.90
2013,04,16,17,16,16.90
2013,04,16,17,17,16.90
2013,04,16,17,18,16.80
2013,04,16,17,19,16.80
2013,04,16,17,20,16.70
2013,04,16,17,21,16.70
2013,04,16,17,22,16.70
2013,04,16,17,23,16.70
2013,04,16,17,24,16.70
2013,04,16,17,25,16.70
2013,04,16,17,26,16.70
2013,04,16,17,27,16.80
2013,04,16,17,28,16.80
2013,04,16,17,29,16.80
2013,04,16,17,30,16.80
2013,04,16,17,31,16.80
2013,04,16,17,32,16.80
2013,04,16,17,33,16.80
2013,04,16,17,34,16.80
2013,04,16,17,35,16.80
2013,04,16,17,36,16.80
2013,04,16,17,37,16.80
2013,04,16,17,38,16.80
2013,04,16,17,39,16.80
2013,04,16,17,40,16.80
2013,04,16,17,41,16.70
2013,04,16,17,42,16.70
2013,04,16,17,43,16.70